Flag for United Kingdom Weather past 2 weeks in Sunderland, England, United Kingdom

Now
54 °F

Scattered showers. Passing clouds.


Feels Like: 53 °F
Forecast: 48 / 62 °F
Wind: 3 mph from North

Location: Newcastle

Current Time: Aug 23, 2014 at 5:16:52 PM

Latest Report: Aug 23, 2014 at 4:50 PM


Visibility: N/A

Pressure: 29.95 "Hg

Humidity: 88%

Dew point: 50 °F

Location of SunderlandLocation

Historic Weather in Sunderland — Graph

°F

Sunderland temperature yesterday

Maximum temperature yesterday: 61 °F (at 3:20 PM)
Minimum temperature yesterday: 43 °F (at 5:20 AM)
Average temperature yesterday: 52 °F

Past Weeks' High & Low Weather Summary

 TemperatureHumidityPressure
High68 °F (Aug 9, 4:20 PM)100% (Aug 8, 7:20 PM)30.07 "Hg (Aug 8, 7:20 PM)
Low43 °F (Aug 22, 5:20 AM)45% (Aug 18, 3:20 PM)29.18 "Hg (Aug 10, 6:20 PM)
Average56 °F79%29.69 "Hg
* Reported Aug 8 4:20 PM — Aug 23 4:20 PM, Sunderland, Weather by CustomWeather, © 2014

Note: Actual official high and low records may vary slightly from our data, if they occured in-between our weather recording intervals... More about our weather records

Advertising

Sunderland weather history for previous 24 hours

 ConditionsComfort  
Time TempWeatherWind HumidityBarometerVisibility
4:20 PM
Aug 23
54 °FScattered showers. Passing clouds.3 mph94%29.95 "HgN/A
3:50 PM52 °FSprinkles. Scattered clouds.2 mph94%29.95 "HgN/A
3:20 PM52 °FScattered showers. Scattered clouds.3 mph94%29.95 "HgN/A
2:50 PM50 °FSleet. Scattered clouds.2 mph100%29.95 "Hg4 mi
2:20 PM48 °FSleet. Scattered clouds.7 mph100%29.95 "Hg4 mi
1:50 PM55 °FScattered showers. Scattered clouds.5 mph72%29.92 "HgN/A
1:20 PM55 °FScattered showers. Scattered clouds.3 mph72%29.92 "HgN/A
12:50 PM57 °FScattered showers. Scattered clouds.6 mph63%29.92 "HgN/A
12:20 PM59 °FScattered showers. Scattered clouds.6 mph59%29.92 "HgN/A
11:50 AM57 °FScattered clouds.7 mph63%29.92 "HgN/A
11:20 AM54 °FSprinkles. Scattered clouds.7 mph77%29.92 "HgN/A
10:50 AM57 °FScattered clouds.7 mph72%29.92 "HgN/A
10:20 AM55 °FScattered clouds.6 mph72%29.92 "HgN/A
9:50 AM54 °FPassing clouds.7 mph77%29.92 "HgN/A
9:20 AM54 °FPassing clouds.6 mph82%29.92 "HgN/A
8:50 AM52 °FScattered clouds.6 mph88%29.89 "HgN/A
8:20 AM50 °FScattered clouds.7 mph88%29.89 "HgN/A
7:50 AM48 °FScattered clouds.6 mph94%29.89 "HgN/A
7:20 AM48 °FScattered clouds.7 mph94%29.89 "HgN/A
6:50 AM48 °FScattered showers. Passing clouds.7 mph87%29.86 "HgN/A
6:20 AM48 °FSprinkles. Passing clouds.7 mph87%29.86 "HgN/A
5:50 AM46 °FPassing clouds.7 mph93%29.86 "HgN/A
5:20 AM48 °FPassing clouds.6 mph87%29.86 "HgN/A
4:50 AM46 °FPassing clouds.7 mph93%29.86 "HgN/A
4:20 AM46 °FClear.3 mph93%29.86 "Hg10 mi
3:50 AM46 °FClear.5 mph93%29.86 "Hg10 mi
3:20 AM46 °FClear.6 mph93%29.86 "Hg10 mi
2:50 AM48 °FPassing clouds.7 mph87%29.86 "HgN/A
2:20 AM48 °FPassing clouds.6 mph87%29.86 "HgN/A
1:50 AM50 °FSprinkles. Passing clouds.7 mph82%29.86 "HgN/A
1:20 AM50 °FPassing clouds.8 mph82%29.86 "HgN/A
12:50 AM48 °FPassing clouds.6 mph87%29.86 "HgN/A
12:20 AM48 °FPassing clouds.3 mph87%29.86 "HgN/A
11:50 PM
Aug 22
50 °FPassing clouds.6 mph88%29.86 "HgN/A
11:20 PM50 °FPassing clouds.6 mph88%29.86 "HgN/A
10:50 PM48 °FPassing clouds.7 mph94%29.86 "HgN/A
10:20 PM48 °FClear.6 mph94%29.86 "Hg10 mi
9:50 PM50 °FClear.2 mph88%29.86 "Hg10 mi
9:20 PM52 °FScattered clouds.2 mph77%29.86 "HgN/A
8:50 PM52 °FPassing clouds.3 mph77%29.83 "HgN/A
8:20 PM52 °FPassing clouds.3 mph77%29.83 "HgN/A
7:50 PM54 °FScattered showers. Passing clouds.6 mph72%29.83 "HgN/A
6:50 PM55 °FPassing clouds.15 mph67%29.83 "HgN/A
6:20 PM55 °FPassing clouds.14 mph63%29.83 "HgN/A
5:50 PM57 °FPassing clouds.15 mph59%29.83 "HgN/A
5:20 PM59 °FPassing clouds.13 mph59%29.83 "HgN/A
Weather by CustomWeather, © 2014

See weather overviewHow to use our weather pages